SL-16 DEB

Satellite information

Favourite Embed

Satellite Type and Status

DEBRISIN ORBIT

Key statistics

Satellite SL-16 DEB at a glance.

Uptime

12042

Days in orbit

Revolutions

≈ 13.9

Per day

Orbit

LEO

Low Earth Orbit

Inclination

71.2

Latest

Satellite identification and parameters

Extended collection of information and parameters for SL-16 DEB.

Object identification

Identified? True

Debris? True

Object name: SL-16 DEB

International designator: 1992-093BL

Object number (NORAD): 22371

Object ID (CCSDS): 22371

Country: COMMONWEALTH OF INDEPENDENT STATES (CIS)

Current information (Y/N): Y

RCS size: LARGE

Orbital parameters

Period: 103.313 minutes

Inclination: 71.166 deg

SMA: 7293.384 km

Apoapsis: 996.624 km

Periapsis: 833.875 km

RAAN: 214.6243 deg

Eccentricy: 0.01115732

Argument of periapsis: 184.9033 deg

Mean anomaly: 233.6811 deg

Mean motion: 13.93827814 rev/day

Mean motion (dot): 0.00000191 rev/day2

B* drag term: 0.00016928006 1/REarth

Two-line elements (TLE)

Creation date: Dec. 14, 2025, 3:07 a.m.

Reference frame: TEME

Reference center: EARTH

Epoch: Dec. 13, 2025, 4:43 p.m. UTC

TLE line 0: 0 SL-16 DEB

TLE line 1: 1 22371U 92093BL 25347.69665541 .00000191 00000-0 16928-3 0 9991

TLE line 2: 2 22371 71.1660 214.6243 0111573 184.9033 233.6811 13.93827814673530

Live tracking on map

Real-time ground track for satellite SL-16 DEB.

In-orbit conjunctions

A list of the most updated potential collisions computed for object SL-16 DEB.

Target Orbit TCA Probability of collision Miss distance Type
COSMOS 1697 LEO 2025-03-25 21:48:24 0.0003908197 338.0 (m) PAYLOAD

Associated space launch

Second generation ELING satellite

SL-16 DEB was lifted into orbit during the mission ‘Zenit-2 | Tselina-2 12’, on board a Zenit-2 space rocket.

The launch took place on Dec. 25, 1992, 5:56 a.m. from 45/1.

For more information about the launch, click the button.

Launch to space Zenit-2 | Tselina-2 12
Zenit-2 | Tselina-2 12

Agency: N/A

Status: Launch Successful

Launch date: Dec. 25, 1992, 5:56 a.m. UTC

Rocket: Zenit-2

Launch pad: 45/1

Location: Baikonur Cosmodrome, Republic of Kazakhstan

...

Latest news about this satellite

There are no fresh news available about this satellite. Check back as we update our databases every day.


Newsletter sign-up

Weekly statistics, charts and insights to help you stay on top of the space industry.